FW5329 Weather Reports


time (UTC)temp
F
wind
direction
speed
knots
gust
knots
rain 1hr
in
rain 24hr
in
rain mn
in
humidity
%
barometer
mb
20260503213035 77 344 4.3 10.4 0.00 0.00 0.00 31 1017.4
20260503211534 77 351 5.2 13.0 0.00 0.00 0.00 31 1017.6
20260503210033 77 338 6.1 16.5 0.00 0.00 0.00 31 1017.7
20260503204536 77 3 4.3 13.0 0.00 0.00 0.00 31 1017.8
20260503203034 76 340 6.1 13.0 0.00 0.00 0.00 32 1017.9
20260503201643 77 344 6.1 12.2 0.00 0.00 0.00 31 1018.1
20260503200036 76 349 5.2 13.9 0.00 0.00 0.00 32 1018.3
20260503194534 76 357 4.3 13.0 0.00 0.00 0.00 32 1018.4
20260503193036 76 346 5.2 11.3 0.00 0.00 0.00 32 1018.5
20260503191535 76 341 5.2 11.3 0.00 0.00 0.00 31 1018.7
20260503184535 75 344 6.1 13.9 0.00 0.00 0.00 33 1018.8
20260503183034 74 346 7.0 13.0 0.00 0.01 0.00 34 1018.9
20260503181534 74 336 5.2 11.3 0.00 0.01 0.00 40 1019.0
20260503180036 74 344 5.2 10.4 0.00 0.01 0.00 41 1019.0
20260503174535 73 298 2.6 7.0 0.00 0.01 0.00 44 1019.2
20260503173146 72 267 2.6 6.1 0.00 0.01 0.00 45 1019.3
20260503160110 68 285 1.7 4.3 0.00 0.01 0.00 45 1019.4
20260503081534 56 113 5.2 7.8 0.00 0.01 0.00 58 1019.5
20260503054534 58 134 2.6 4.3 0.00 0.01 0.01 61 1019.3
20260503053035 61 152 3.5 5.2 0.00 0.01 0.01 54 1019.2
20260503051535 61 137 3.5 5.2 0.00 0.01 0.01 54 1019.3
20260503050035 61 126 1.7 4.3 0.00 0.01 0.01 55 1019.3
20260503044535 61 151 0.9 5.2 0.00 0.01 0.01 55 1019.4
20260503043037 61 130 0.9 2.6 0.00 0.01 0.01 55 1019.3
20260503033035 62 140 2.6 3.5 0.00 0.01 0.01 56 1018.8
20260503031532 64 135 2.6 3.5 0.00 0.01 0.01 55 1018.6
20260503030036 65 114 2.6 4.3 0.00 0.01 0.01 52 1018.3
20260503024535 66 112 3.5 5.2 0.00 0.01 0.01 49 1018.1
20260503023033 66 134 2.6 4.3 0.00 0.01 0.01 50 1018.0
20260503021534 66 149 2.6 4.3 0.00 0.01 0.01 52 1018.0
20260503020039 68 160 2.6 3.5 0.00 0.01 0.01 49 1017.9
20260503014531 70 191 1.7 3.5 0.00 0.01 0.01 42 1017.9
20260503013037 71 101 0.9 3.5 0.00 0.01 0.01 39 1017.9
20260503011534 71 55 1.7 5.2 0.00 0.01 0.01 37 1017.9
20260503004534 73 62 2.6 6.1 0.00 0.01 0.01 35 1017.9
20260503003035 73 57 2.6 7.8 0.00 0.01 0.01 34 1017.8
20260502234607 73 26 2.6 8.7 0.00 0.01 0.01 34 1018.0
20260502233142 73 55 3.5 10.4 0.00 0.01 0.01 34 1018.1
20260502231535 73 10 3.5 8.7 0.00 0.01 0.01 34 1018.2
20260502224537 73 36 3.5 11.3 0.00 0.01 0.01 35 1018.5
20260502221545 74 360 4.3 13.0 0.00 0.01 0.01 34 1018.8
20260502220040 74 19 4.3 12.2 0.00 0.01 0.01 34 1018.8